User: anonymous   Login
Location: Unspecified
(17.6330°N, 0.0000°E)
Time: 20:55:52
(UTC+00:00)
Language:

DX 1 - Orbit

View from above orbital plane
View from above orbital plane
View from above satellite
View from above satellite

Ground track
Ground track

The orbit data is extracted from the following two-line orbital elements,

1 40071U 14037C   19200.49269677  .00000047  00000-0  13495-4 0  9996
2 40071  98.4297 355.9528 0009403 122.8542 237.3579 14.81277077271819
Epoch (UTC): 19 July 2019 11:49:29
Eccentricity: 0.0009403
inclination: 98.4297°
perigee height: 619 km
apogee height: 632 km
right ascension of ascending node: 355.9528°
argument of perigee: 122.8542°
revolutions per day: 14.81277077
mean anomaly at epoch: 237.3579°
orbit number at epoch: 27181

The dashed part of the orbit path shows where the satellite is in the earth's shadow,  

DLR